This is the latest recevied weather packets stored in our database for station/object W7TTE. If no packets are shown the sender has not sent any weather packets the latest 10 day(s).
| Time | Temp. | Humidity | Pressure | Rain* | Wind** | Luminosity | Snow |
|---|---|---|---|---|---|---|---|
| 1777661520 | 28.33° C | 28% | 1014 hPa | 0 mm | - | 784 W/m² | - |
| 1777661217 | 28.33° C | 30% | 1014.1 hPa | 0 mm | - | 781 W/m² | - |
| 1777660916 | 28.33° C | 28% | 1014.3 hPa | 0 mm | - | 779 W/m² | - |
| 1777660613 | 28.33° C | 30% | 1014.2 hPa | 0 mm | - | 773 W/m² | - |
| 1777660310 | 27.78° C | 30% | 1014.3 hPa | 0 mm | - | 768 W/m² | - |
| 1777660007 | 27.78° C | 30% | 1014.4 hPa | 0 mm | - | 764 W/m² | - |
| 1777659703 | 27.22° C | 31% | 1014.6 hPa | 0 mm | - | 758 W/m² | - |
| 1777659400 | 27.78° C | 30% | 1014.7 hPa | 0 mm | - | 753 W/m² | - |
| 1777659097 | 27.22° C | 31% | 1014.7 hPa | 0 mm | - | 747 W/m² | - |
| 1777658796 | 27.22° C | 30% | 1014.7 hPa | 0 mm | - | 740 W/m² | - |
| 1777658491 | 27.78° C | 30% | 1014.7 hPa | 0 mm | - | 734 W/m² | - |
| 1777658188 | 27.78° C | 30% | 1014.8 hPa | 0 mm | - | 724 W/m² | - |
| 1777657885 | 27.22° C | 31% | 1014.9 hPa | 0 mm | - | 717 W/m² | - |
| 1777657582 | 26.67° C | 31% | 1014.9 hPa | 0 mm | - | 709 W/m² | - |
| 1777657280 | 26.67° C | 32% | 1015 hPa | 0 mm | - | 700 W/m² | - |
| 1777656977 | 26.67° C | 32% | 1015 hPa | 0 mm | - | 691 W/m² | - |
| 1777656674 | 26.11° C | 33% | 1015 hPa | 0 mm | - | 683 W/m² | - |
| 1777656369 | 26.11° C | 33% | 1015 hPa | 0 mm | - | 672 W/m² | - |
| 1777656064 | 26.67° C | 34% | 1015 hPa | 0 mm | - | 661 W/m² | - |
| 1777655761 | 26.11° C | 33% | 1015 hPa | 0 mm | - | 651 W/m² | - |
| 1777655458 | 26.11° C | 35% | 1015 hPa | 0 mm | - | 639 W/m² | - |
| 1777655155 | 26.11° C | 34% | 1014.9 hPa | 0 mm | - | 627 W/m² | - |
| 1777654852 | 26.11° C | 33% | 1014.9 hPa | 0 mm | - | 615 W/m² | - |
| 1777654549 | 26.11° C | 33% | 1015 hPa | 0 mm | - | 604 W/m² | - |
| 1777654247 | 26.11° C | 34% | 1015.2 hPa | 0 mm | - | 592 W/m² | - |
* Rain latest hour (hover to see other rain measurements)
** Current wind speed in m/s (hover to see current wind gust speed)